Overview Statistics Trail Chart Weather Telemetry Raw packets
 

This is the latest recevied weather packets stored in our database for station/object I5EKX-13. If no packets are shown the sender has not sent any weather packets the latest 10 day(s).

<< 1 2 3 4 5 >>
Time Temp. Humidity Pressure Rain* Wind** Luminosity Snow
1788571937 19.44° C 87% 1013 hPa - - - -
1788570733 19.44° C 88% 1012.9 hPa - - - -
1788569529 20° C 86% 1012.8 hPa - - - -
1788568325 19.44° C 87% 1013.1 hPa - - - -
1788565917 20° C 85% 1013.2 hPa - - - -
1788564713 20° C 88% 1013.4 hPa - - - -
1788563509 20.56° C 87% 1013.6 hPa - - - -
1788562305 21.11° C 87% 1013.6 hPa - - - -
1788561101 21.11° C 87% 1013.6 hPa - - - -
1788559897 21.11° C 86% 1013.6 hPa - - - -
1788558693 21.11° C 86% 1013.6 hPa - - - -
1788557489 21.11° C 86% 1013.6 hPa - - - -
1788556285 21.67° C 86% 1013.7 hPa - - - -
1788555081 21.67° C 84% 1013.7 hPa - - - -
1788553877 21.67° C 84% 1013.8 hPa - - - -
1788552673 21.67° C 84% 1014 hPa - - - -
1788551468 22.22° C 81% 1013.9 hPa - - - -
1788550265 22.78° C 80% 1013.8 hPa - - - -
1788549061 22.78° C 81% 1013.6 hPa - - - -
1788547857 23.33° C 80% 1013.5 hPa - - - -
1788546653 23.89° C 79% 1013.3 hPa - - - -
1788545449 25° C 76% 1013 hPa - - - -
1788544245 25.56° C 74% 1012.9 hPa - - - -
1788543041 26.67° C 71% 1012.9 hPa - - - -
1788541837 27.78° C 67% 1012.9 hPa - - - -

* Rain since midnight (hover to see other rain measurements)
** Current wind speed in m/s (hover to see current wind gust speed)